• In Belarus
  • List of Countries
  • For 7 days
  • Water Temperature
  • Satellite Maps
  • Weather Map
  • Weather Widgets
  • user-avatar
    Login

    Hourly Weather Jelenin

    Today, 21 April, Sunday

    Time Temperature Precipitation Wind Pressure Humidity
    00:00 +10°C° 0 mm 1 mps 757 mmHg 59%
    01:00 +8°C° 0 mm 2 mps 756 mmHg 62%
    02:00 +8°C° 0 mm 2 mps 756 mmHg 64%
    03:00 +7°C° 0 mm 2 mps 756 mmHg 67%
    04:00 +8°C° 0 mm 1 mps 756 mmHg 69%
    05:00 +9°C° 0 mm 1 mps 756 mmHg 65%
    06:00 +10°C° 0 mm 1 mps 756 mmHg 61%
    07:00 +11°C° 0 mm 1 mps 756 mmHg 55%
    08:00 +13°C° 0 mm 1 mps 756 mmHg 49%
    09:00 +16°C° 0 mm 1 mps 755 mmHg 43%
    10:00 +19°C° 0 mm 1 mps 755 mmHg 36%
    11:00 +19°C° 0 mm 2 mps 755 mmHg 34%
    12:00 +20°C° 0 mm 2 mps 754 mmHg 32%
    13:00 +22°C° 0 mm 1 mps 754 mmHg 29%
    14:00 +22°C° 0 mm 1 mps 753 mmHg 29%
    15:00 +21°C° 0 mm 2 mps 753 mmHg 30%
    16:00 +21°C° 0 mm 2 mps 752 mmHg 30%
    17:00 +19°C° 0 mm 2 mps 752 mmHg 36%
    18:00 +18°C° 0 mm 1 mps 752 mmHg 42%
    19:00 +15°C° 0 mm 1 mps 751 mmHg 48%
    20:00 +13°C° 0 mm 1 mps 751 mmHg 51%
    21:00 +12°C° 0 mm 1 mps 751 mmHg 54%
    22:00 +11°C° 0 mm 1 mps 751 mmHg 57%
    23:00 +10°C° 0 mm 1 mps 751 mmHg 57%

    Tomorrow, 22 April, Monday

    Time Temperature Precipitation Wind Pressure Humidity
    00:00 +9°C° 0 mm 2 mps 751 mmHg 57%
    01:00 +8°C° 0 mm 2 mps 751 mmHg 57%
    02:00 +7°C° 0 mm 2 mps 751 mmHg 60%
    03:00 +6°C° 0 mm 2 mps 751 mmHg 64%
    04:00 +6°C° 0 mm 2 mps 751 mmHg 67%
    05:00 +7°C° 0 mm 3 mps 751 mmHg 68%
    06:00 +7°C° 0 mm 3 mps 751 mmHg 69%
    07:00 +7°C° 0 mm 4 mps 751 mmHg 70%
    08:00 +10°C° 0 mm 4 mps 751 mmHg 62%
    09:00 +12°C° 0 mm 5 mps 751 mmHg 54%
    10:00 +14°C° 0 mm 5 mps 751 mmHg 46%
    11:00 +14°C° 0 mm 6 mps 750 mmHg 44%
    12:00 +15°C° 0 mm 6 mps 750 mmHg 43%
    13:00 +16°C° 0 mm 7 mps 750 mmHg 42%
    14:00 +16°C° 0 mm 7 mps 749 mmHg 41%
    15:00 +16°C° 0 mm 7 mps 749 mmHg 41%
    16:00 +16°C° 0 mm 7 mps 749 mmHg 41%
    17:00 +15°C° 0 mm 6 mps 749 mmHg 48%
    18:00 +14°C° 0 mm 5 mps 748 mmHg 55%
    19:00 +13°C° 0 mm 4 mps 748 mmHg 62%
    20:00 +12°C° 0 mm 5 mps 748 mmHg 62%
    21:00 +12°C° 0 mm 5 mps 748 mmHg 61%
    22:00 +11°C° 0 mm 6 mps 748 mmHg 61%
    23:00 +10°C° 0 mm 6 mps 748 mmHg 60%

    Day after tomorrow, 23 April, Tuesday

    Time Temperature Precipitation Wind Pressure Humidity
    00:00 +9°C° 0 mm 6 mps 748 mmHg 59%
    01:00 +8°C° 0 mm 6 mps 748 mmHg 57%
    02:00 +8°C° 0 mm 6 mps 747 mmHg 58%
    03:00 +7°C° 0 mm 6 mps 747 mmHg 59%
    04:00 +7°C° 0 mm 6 mps 747 mmHg 60%
    05:00 +7°C° 0 mm 6 mps 746 mmHg 61%
    06:00 +8°C° 0 mm 6 mps 746 mmHg 61%
    07:00 +9°C° 0 mm 7 mps 746 mmHg 61%
    08:00 +10°C° 0 mm 7 mps 746 mmHg 59%
    09:00 +12°C° 0 mm 7 mps 746 mmHg 57%
    10:00 +15°C° 0 mm 7 mps 745 mmHg 56%
    11:00 +15°C° 0 mm 7 mps 745 mmHg 57%
    12:00 +15°C° 0 mm 7 mps 745 mmHg 58%
    13:00 +15°C° 0 mm 7 mps 744 mmHg 59%
    14:00 +15°C° 0.2 mm 7 mps 744 mmHg 63%
    15:00 +14°C° 0.2 mm 7 mps 744 mmHg 68%
    16:00 +14°C° 0.2 mm 6 mps 744 mmHg 72%
    17:00 +13°C° 0 mm 6 mps 743 mmHg 72%
    18:00 +13°C° 0 mm 6 mps 743 mmHg 72%
    19:00 +11°C° 0 mm 6 mps 743 mmHg 72%
    20:00 +11°C° 0 mm 6 mps 743 mmHg 72%
    21:00 +11°C° 0 mm 6 mps 743 mmHg 72%
    22:00 +10°C° 0 mm 7 mps 743 mmHg 71%
    23:00 +10°C° 0 mm 6 mps 743 mmHg 75%

    24 April, Wednesday

    Time Temperature Precipitation Wind Pressure Humidity
    00:00 +10°C° 0 mm 6 mps 742 mmHg 78%
    01:00 +9°C° 0 mm 6 mps 742 mmHg 81%
    02:00 +9°C° 0 mm 6 mps 742 mmHg 82%
    03:00 +9°C° 0 mm 6 mps 742 mmHg 82%
    04:00 +9°C° 0 mm 6 mps 742 mmHg 83%
    05:00 +10°C° 0 mm 5 mps 743 mmHg 80%
    06:00 +12°C° 0 mm 5 mps 743 mmHg 78%
    07:00 +13°C° 0 mm 5 mps 743 mmHg 75%
    08:00 +15°C° 0 mm 5 mps 743 mmHg 68%
    09:00 +18°C° 0 mm 4 mps 744 mmHg 60%
    10:00 +20°C° 0 mm 4 mps 744 mmHg 53%
    11:00 +22°C° 0 mm 4 mps 744 mmHg 50%
    12:00 +23°C° 0 mm 4 mps 745 mmHg 47%
    13:00 +25°C° 0 mm 4 mps 745 mmHg 44%
    14:00 +25°C° 0 mm 3 mps 745 mmHg 44%
    15:00 +25°C° 0 mm 3 mps 745 mmHg 44%
    16:00 +25°C° 0 mm 3 mps 745 mmHg 45%
    17:00 +22°C° 0 mm 3 mps 745 mmHg 52%
    18:00 +21°C° 0 mm 3 mps 745 mmHg 60%
    19:00 +19°C° 0 mm 3 mps 745 mmHg 68%
    20:00 +18°C° 0 mm 3 mps 745 mmHg 74%
    21:00 +16°C° 0 mm 3 mps 746 mmHg 80%
    22:00 +14°C° 0 mm 3 mps 746 mmHg 86%
    23:00 +13°C° 0 mm 3 mps 746 mmHg 89%

    25 April, Thursday

    Time Temperature Precipitation Wind Pressure Humidity
    00:00 +13°C° 0 mm 3 mps 746 mmHg 91%
    01:00 +12°C° 0 mm 3 mps 745 mmHg 93%
    02:00 +12°C° 0 mm 3 mps 745 mmHg 93%
    03:00 +12°C° 0 mm 3 mps 745 mmHg 94%
    04:00 +12°C° 0 mm 3 mps 745 mmHg 94%
    05:00 +13°C° 0 mm 3 mps 745 mmHg 89%
    06:00 +14°C° 0 mm 3 mps 745 mmHg 83%
    07:00 +15°C° 0 mm 4 mps 745 mmHg 77%
    08:00 +18°C° 0 mm 3 mps 745 mmHg 69%
    09:00 +20°C° 0 mm 3 mps 745 mmHg 61%
    10:00 +23°C° 0 mm 2 mps 745 mmHg 52%
    11:00 +25°C° 0 mm 2 mps 745 mmHg 49%
    12:00 +26°C° 0 mm 2 mps 745 mmHg 45%
    13:00 +27°C° 0 mm 2 mps 745 mmHg 41%
    14:00 +27°C° 0 mm 2 mps 745 mmHg 41%
    15:00 +27°C° 0 mm 2 mps 745 mmHg 41%
    16:00 +27°C° 0 mm 2 mps 745 mmHg 41%
    17:00 +25°C° 0 mm 2 mps 745 mmHg 49%
    18:00 +23°C° 0 mm 2 mps 745 mmHg 57%
    19:00 +20°C° 0 mm 2 mps 745 mmHg 64%
    20:00 +20°C° 0 mm 1 mps 745 mmHg 71%
    21:00 +19°C° 0 mm 1 mps 745 mmHg 77%
    22:00 +16°C° 0 mm 1 mps 745 mmHg 83%
    23:00 +16°C° 0 mm 1 mps 745 mmHg 85%

    26 April, Friday

    Time Temperature Precipitation Wind Pressure Humidity
    00:00 +14°C° 0 mm 0 mps 745 mmHg 87%
    01:00 +14°C° 0 mm 0 mps 745 mmHg 89%
    02:00 +13°C° 0 mm 0 mps 744 mmHg 89%
    03:00 +13°C° 0 mm 0 mps 744 mmHg 90%
    04:00 +13°C° 0 mm 0 mps 744 mmHg 91%
    05:00 +14°C° 0 mm 0 mps 744 mmHg 85%
    06:00 +18°C° 0 mm 1 mps 743 mmHg 80%
    07:00 +19°C° 0 mm 1 mps 743 mmHg 74%
    08:00 +21°C° 0 mm 1 mps 743 mmHg 66%
    09:00 +23°C° 0 mm 1 mps 743 mmHg 58%
    10:00 +26°C° 0 mm 2 mps 743 mmHg 50%
    11:00 +26°C° 0 mm 2 mps 743 mmHg 47%
    12:00 +27°C° 0 mm 2 mps 742 mmHg 44%
    13:00 +28°C° 0 mm 2 mps 742 mmHg 41%
    14:00 +26°C° 1.1 mm 3 mps 742 mmHg 51%
    15:00 +23°C° 1.1 mm 4 mps 743 mmHg 60%
    16:00 +21°C° 1.1 mm 5 mps 743 mmHg 69%
    17:00 +19°C° 2.2 mm 5 mps 743 mmHg 76%
    18:00 +16°C° 2.2 mm 6 mps 744 mmHg 82%
    19:00 +15°C° 2.2 mm 7 mps 745 mmHg 89%
    20:00 +13°C° 0.5 mm 6 mps 745 mmHg 89%
    21:00 +11°C° 0.5 mm 6 mps 746 mmHg 90%
    22:00 +10°C° 0.5 mm 6 mps 747 mmHg 91%
    23:00 +10°C° 0.1 mm 6 mps 747 mmHg 91%
    Show more